sat.trackr.live / text

‹ back to catalog

HYDROGNSS-2

NORAD 66763 · 2025-276DB

PAYLOAD ACTIVE UNKNOWN

§ Identity

Operator
Country
ESA
Launch date
2025-11-28
Launch site
AFWTR
Launch vehicle
Mass (kg)
RCS (m²)

External: N2YO · Heavens-Above · Gunter

§ Orbital elements

Epoch: 2026-09-20T08:30:58.979520Z

Period
95.25 min
Inclination
97.4118°
Eccentricity
0.0011899
Mean motion
15.11873842 rev/d
Perigee alt
522.3 km
Apogee alt
538.7 km
Semi-major
6,908.6 km
B*
1.0566e-4
RAAN
332.9939°
Arg perigee
33.8262°
Mean anomaly
326.3726°
Rev number
4,472

§ Raw data

HYDROGNSS-21 66763U 25276DB  26263.35484930  .00001747  00000+0  10566-3 0  99942 66763  97.4118 332.9939 0011899  33.8262 326.3726 15.11873842 44726

JSON: /api/v1/satellites/66763 · /tle

For live sub-satellite position, see the globe view (requires WebGL).

§ Visibility from observer

Set your observer location to see the next 7 days of passes ≥ 10°. The values pass through the URL so the page stays shareable.

No JS? Fill the form by hand. The geolocation button needs JavaScript.